| time (UTC) | temp F | wind direction | speed MPH | gust MPH | rain 1hr in | rain 24hr in | rain mn in | humidity % | barometer mb |
| 20260508175104 | 57 | 243 | 8.0 | 10.0 | 0.00 | 0.00 | 0.00 | 72 | 1013.5 |
| 20260508174601 | 57 | 215 | 9.0 | 11.0 | 0.00 | 0.00 | 0.00 | 73 | 1013.6 |
| 20260508174058 | 58 | 244 | 8.0 | 10.0 | 0.00 | 0.00 | 0.00 | 74 | 1014.1 |
| 20260508173555 | 58 | 248 | 6.0 | 8.0 | 0.00 | 0.00 | 0.00 | 72 | 1013.6 |
| 20260508173050 | 58 | 203 | 9.0 | 11.0 | 0.00 | 0.00 | 0.00 | 71 | 1013.7 |
| 20260508172548 | 58 | 211 | 11.0 | 11.0 | 0.00 | 0.00 | 0.00 | 73 | 1013.9 |
| 20260508172044 | 58 | 212 | 8.0 | 10.0 | 0.00 | 0.00 | 0.00 | 74 | 1013.8 |
| 20260508171541 | 58 | 197 | 13.0 | 14.0 | 0.00 | 0.00 | 0.00 | 73 | 1014.0 |
| 20260508171037 | 59 | 234 | 9.0 | 15.0 | 0.00 | 0.00 | 0.00 | 75 | 1014.1 |
| 20260508170535 | 59 | 205 | 7.0 | 11.0 | 0.00 | 0.00 | 0.00 | 75 | 1014.0 |
| 20260508170032 | 58 | 224 | 8.0 | 10.0 | 0.00 | 0.00 | 0.00 | 74 | 1014.1 |
| 20260508165529 | 58 | 239 | 6.0 | 10.0 | 0.00 | 0.00 | 0.00 | 72 | 1014.3 |
| 20260508165026 | 58 | 245 | 8.0 | 10.0 | 0.00 | 0.00 | 0.00 | 73 | 1014.5 |
| 20260508164522 | 58 | 237 | 7.0 | 8.0 | 0.00 | 0.00 | 0.00 | 72 | 1014.3 |
| 20260508164019 | 58 | 259 | 6.0 | 10.0 | 0.00 | 0.00 | 0.00 | 74 | 1014.4 |
| 20260508163517 | 57 | 213 | 8.0 | 11.0 | 0.00 | 0.00 | 0.00 | 75 | 1014.5 |
| 20260508163013 | 58 | 211 | 6.0 | 10.0 | 0.00 | 0.00 | 0.00 | 77 | 1014.8 |
| 20260508162510 | 57 | 235 | 4.0 | 9.0 | 0.00 | 0.00 | 0.00 | 77 | 1014.9 |
| 20260508162008 | 57 | 243 | 7.0 | 9.0 | 0.00 | 0.00 | 0.00 | 77 | 1014.8 |
| 20260508161504 | 56 | 215 | 10.0 | 11.0 | 0.00 | 0.00 | 0.00 | 77 | 1014.9 |
| 20260508161001 | 55 | 207 | 9.0 | 10.0 | 0.00 | 0.00 | 0.00 | 79 | 1014.9 |
| 20260508160500 | 55 | 246 | 5.0 | 11.0 | 0.00 | 0.00 | 0.00 | 78 | 1015.0 |
| 20260508155956 | 55 | 240 | 7.0 | 9.0 | 0.00 | 0.00 | 0.00 | 78 | 1015.2 |
| 20260508155453 | 55 | 232 | 7.0 | 11.0 | 0.00 | 0.00 | 0.00 | 79 | 1015.0 |
| 20260508154950 | 55 | 229 | 4.0 | 8.0 | 0.00 | 0.00 | 0.00 | 79 | 1015.2 |
| 20260508154448 | 54 | 230 | 6.0 | 8.0 | 0.00 | 0.00 | 0.00 | 79 | 1015.0 |
| 20260508153944 | 55 | 200 | 8.0 | 9.0 | 0.00 | 0.00 | 0.00 | 79 | 1015.2 |
| 20260508153441 | 55 | 240 | 6.0 | 9.0 | 0.00 | 0.00 | 0.00 | 77 | 1014.9 |
| 20260508152937 | 54 | 237 | 6.0 | 9.0 | 0.00 | 0.00 | 0.00 | 78 | 1015.0 |
| 20260508152434 | 54 | 242 | 7.0 | 8.0 | 0.00 | 0.00 | 0.00 | 79 | 1014.9 |
| 20260508151930 | 54 | 244 | 5.0 | 9.0 | 0.00 | 0.00 | 0.00 | 78 | 1015.0 |
| 20260508151427 | 54 | 239 | 6.0 | 9.0 | 0.00 | 0.00 | 0.00 | 76 | 1015.1 |
| 20260508150923 | 54 | 239 | 7.0 | 8.0 | 0.00 | 0.00 | 0.00 | 77 | 1015.0 |
| 20260508150420 | 54 | 233 | 5.0 | 10.0 | 0.00 | 0.00 | 0.00 | 78 | 1014.9 |
| 20260508145916 | 54 | 220 | 7.0 | 9.0 | 0.00 | 0.00 | 0.00 | 78 | 1015.1 |
| 20260508145413 | 54 | 246 | 7.0 | 9.0 | 0.00 | 0.00 | 0.00 | 78 | 1015.1 |
| 20260508144910 | 54 | 238 | 6.0 | 8.0 | 0.00 | 0.00 | 0.00 | 78 | 1015.0 |
| 20260508144408 | 54 | 269 | 5.0 | 5.0 | 0.00 | 0.00 | 0.00 | 76 | 1015.2 |
| 20260508143905 | 55 | 246 | 4.0 | 6.0 | 0.00 | 0.00 | 0.00 | 77 | 1015.0 |
| 20260508143402 | 54 | 243 | 1.0 | 3.0 | 0.00 | 0.00 | 0.00 | 79 | 1015.2 |
| 20260508142858 | 53 | 249 | 3.0 | 6.0 | 0.00 | 0.00 | 0.00 | 78 | 1014.9 |
| 20260508142355 | 53 | 248 | 5.0 | 7.0 | 0.00 | 0.00 | 0.00 | 79 | 1015.1 |
| 20260508141852 | 52 | 254 | 4.0 | 6.0 | 0.00 | 0.00 | 0.00 | 80 | 1014.8 |
| 20260508141348 | 53 | 250 | 6.0 | 7.0 | 0.00 | 0.00 | 0.00 | 79 | 1015.0 |
| 20260508140847 | 52 | 245 | 3.0 | 7.0 | 0.00 | 0.00 | 0.00 | 79 | 1014.9 |
| 20260508140343 | 52 | 242 | 3.0 | 6.0 | 0.00 | 0.00 | 0.00 | 80 | 1015.1 |
| 20260508135838 | 53 | 266 | 5.0 | 7.0 | 0.00 | 0.00 | 0.00 | 79 | 1015.0 |
| 20260508135335 | 53 | 251 | 6.0 | 7.0 | 0.00 | 0.00 | 0.00 | 79 | 1014.8 |
| 20260508134831 | 52 | 229 | 3.0 | 6.0 | 0.00 | 0.00 | 0.00 | 80 | 1015.0 |
| 20260508134328 | 52 | 237 | 2.0 | 5.0 | 0.00 | 0.00 | 0.00 | 81 | 1015.0 |
| 20260508133825 | 52 | 224 | 7.0 | 8.0 | 0.00 | 0.00 | 0.00 | 80 | 1015.1 |
| 20260508133323 | 52 | 239 | 7.0 | 7.0 | 0.00 | 0.00 | 0.00 | 79 | 1014.9 |
| 20260508132820 | 52 | 251 | 6.0 | 9.0 | 0.00 | 0.00 | 0.00 | 78 | 1015.1 |
| 20260508132318 | 52 | 260 | 6.0 | 7.0 | 0.00 | 0.00 | 0.00 | 80 | 1015.0 |
| 20260508131814 | 52 | 243 | 6.0 | 8.0 | 0.00 | 0.00 | 0.00 | 81 | 1015.2 |
| 20260508131309 | 51 | 270 | 6.0 | 9.0 | 0.00 | 0.00 | 0.00 | 80 | 1014.9 |
| 20260508130806 | 51 | 286 | 5.0 | 7.0 | 0.00 | 0.00 | 0.00 | 81 | 1015.1 |
| 20260508130304 | 51 | 244 | 5.0 | 8.0 | 0.00 | 0.00 | 0.00 | 81 | 1015.1 |
| 20260508125759 | 51 | 255 | 7.0 | 8.0 | 0.00 | 0.00 | 0.00 | 82 | 1015.2 |
| 20260508125256 | 51 | 259 | 6.0 | 8.0 | 0.00 | 0.00 | 0.00 | 82 | 1015.2 |
| 20260508124754 | 50 | 244 | 5.0 | 6.0 | 0.00 | 0.00 | 0.00 | 82 | 1015.2 |
| 20260508124251 | 50 | 241 | 4.0 | 8.0 | 0.00 | 0.00 | 0.00 | 82 | 1015.5 |
| 20260508123749 | 50 | 238 | 7.0 | 9.0 | 0.00 | 0.00 | 0.00 | 83 | 1015.5 |
| 20260508123247 | 50 | 228 | 5.0 | 7.0 | 0.00 | 0.00 | 0.00 | 84 | 1015.4 |
| 20260508122743 | 49 | 255 | 6.0 | 8.0 | 0.00 | 0.00 | 0.00 | 85 | 1015.6 |
| 20260508122240 | 49 | 250 | 6.0 | 8.0 | 0.00 | 0.00 | 0.00 | 84 | 1015.5 |
| 20260508121737 | 48 | 238 | 5.0 | 6.0 | 0.00 | 0.00 | 0.00 | 86 | 1015.2 |
| 20260508121235 | 48 | 224 | 4.0 | 5.0 | 0.00 | 0.00 | 0.00 | 87 | 1015.2 |
| 20260508120732 | 48 | 222 | 5.0 | 8.0 | 0.00 | 0.00 | 0.00 | 86 | 1015.5 |
| 20260508120231 | 48 | 239 | 5.0 | 9.0 | 0.00 | 0.00 | 0.00 | 85 | 1015.1 |
| 20260508115728 | 48 | 215 | 5.0 | 7.0 | 0.00 | 0.00 | 0.00 | 87 | 1015.0 |
| 20260508115225 | 48 | 238 | 6.0 | 8.0 | 0.00 | 0.00 | 0.00 | 88 | 1015.0 |
| 20260508114721 | 47 | 221 | 5.0 | 6.0 | 0.00 | 0.00 | 0.00 | 90 | 1014.8 |
| 20260508114218 | 46 | 231 | 3.0 | 3.0 | 0.00 | 0.00 | 0.00 | 91 | 1014.5 |
| 20260508113715 | 46 | 220 | 2.0 | 5.0 | 0.00 | 0.00 | 0.00 | 91 | 1014.7 |
| 20260508113214 | 46 | 228 | 2.0 | 3.0 | 0.00 | 0.00 | 0.00 | 91 | 1014.6 |
| 20260508112709 | 45 | 230 | 3.0 | 3.0 | 0.00 | 0.00 | 0.00 | 92 | 1014.6 |
| 20260508112206 | 45 | 234 | 2.0 | 3.0 | 0.00 | 0.00 | 0.00 | 92 | 1014.4 |
| 20260508111703 | 45 | 216 | 1.0 | 3.0 | 0.00 | 0.00 | 0.00 | 93 | 1014.4 |
| 20260508111201 | 44 | 235 | 3.0 | 3.0 | 0.00 | 0.00 | 0.00 | 93 | 1014.6 |
| 20260508110658 | 44 | 225 | 3.0 | 5.0 | 0.00 | 0.00 | 0.00 | 93 | 1014.3 |
| 20260508110154 | 44 | 204 | 4.0 | 5.0 | 0.00 | 0.00 | 0.00 | 93 | 1014.5 |
| 20260508105649 | 43 | 224 | 2.0 | 2.0 | 0.00 | 0.00 | 0.00 | 93 | 1014.3 |
| 20260508105146 | 43 | 220 | 2.0 | 2.0 | 0.00 | 0.00 | 0.00 | 93 | 1014.2 |
| 20260508104644 | 43 | 225 | 1.0 | 2.0 | 0.00 | 0.00 | 0.00 | 93 | 1014.1 |
| 20260508104140 | 43 | 223 | 2.0 | 2.0 | 0.00 | 0.00 | 0.00 | 93 | 1014.3 |
| 20260508103637 | 43 | 221 | 1.0 | 1.0 | 0.00 | 0.00 | 0.00 | 93 | 1014.4 |
| 20260508103135 | 43 | 220 | 2.0 | 2.0 | 0.00 | 0.00 | 0.00 | 93 | 1014.2 |
| 20260508102632 | 43 | 216 | 3.0 | 3.0 | 0.00 | 0.00 | 0.00 | 93 | 1014.1 |
| 20260508102130 | 43 | 214 | 2.0 | 2.0 | 0.00 | 0.00 | 0.00 | 92 | 1014.1 |
| 20260508101621 | 43 | 222 | 3.0 | 3.0 | 0.00 | 0.00 | 0.00 | 93 | 1014.2 |
| 20260508101118 | 44 | 216 | 3.0 | 3.0 | 0.00 | 0.00 | 0.00 | 92 | 1014.2 |
| 20260508100615 | 44 | 212 | 3.0 | 3.0 | 0.00 | 0.00 | 0.00 | 92 | 1014.2 |
| 20260508100114 | 44 | 217 | 3.0 | 3.0 | 0.00 | 0.00 | 0.00 | 91 | 1014.1 |
| 20260508095610 | 45 | 216 | 2.0 | 3.0 | 0.00 | 0.00 | 0.00 | 91 | 1014.0 |
| 20260508095107 | 45 | 206 | 3.0 | 3.0 | 0.00 | 0.00 | 0.00 | 91 | 1014.3 |
| 20260508094604 | 46 | 221 | 3.0 | 5.0 | 0.00 | 0.00 | 0.00 | 91 | 1014.2 |
| 20260508094101 | 46 | 213 | 3.0 | 5.0 | 0.00 | 0.00 | 0.00 | 91 | 1014.1 |
| 20260508093558 | 46 | 210 | 5.0 | 6.0 | 0.00 | 0.00 | 0.00 | 90 | 1014.3 |
| 20260508093056 | 45 | 217 | 5.0 | 6.0 | 0.00 | 0.00 | 0.00 | 91 | 1014.0 |
| 20260508092553 | 45 | 213 | 5.0 | 7.0 | 0.00 | 0.00 | 0.00 | 91 | 1014.4 |
| 20260508092052 | 45 | 217 | 5.0 | 6.0 | 0.00 | 0.00 | 0.00 | 91 | 1014.3 |
| 20260508091549 | 45 | 217 | 4.0 | 5.0 | 0.00 | 0.00 | 0.00 | 92 | 1014.2 |
| 20260508091045 | 44 | 213 | 3.0 | 5.0 | 0.00 | 0.00 | 0.00 | 92 | 1014.2 |
| 20260508090543 | 45 | 215 | 3.0 | 3.0 | 0.00 | 0.00 | 0.00 | 91 | 1014.2 |
| 20260508090040 | 44 | 213 | 5.0 | 6.0 | 0.00 | 0.00 | 0.00 | 92 | 1014.3 |
| 20260508085536 | 44 | 220 | 3.0 | 5.0 | 0.00 | 0.00 | 0.00 | 92 | 1014.3 |
| 20260508085034 | 44 | 227 | 2.0 | 2.0 | 0.00 | 0.00 | 0.00 | 92 | 1014.4 |
| 20260508084530 | 44 | 218 | 2.0 | 3.0 | 0.00 | 0.00 | 0.00 | 92 | 1014.3 |
| 20260508084028 | 44 | 232 | 3.0 | 3.0 | 0.00 | 0.00 | 0.00 | 92 | 1014.3 |
| 20260508083525 | 44 | 216 | 3.0 | 3.0 | 0.00 | 0.00 | 0.00 | 92 | 1014.3 |
| 20260508083021 | 44 | 233 | 2.0 | 3.0 | 0.00 | 0.00 | 0.00 | 92 | 1014.2 |
| 20260508082517 | 44 | 213 | 4.0 | 5.0 | 0.00 | 0.00 | 0.00 | 92 | 1014.4 |
| 20260508082015 | 44 | 229 | 3.0 | 3.0 | 0.00 | 0.00 | 0.00 | 92 | 1014.4 |
| 20260508081512 | 45 | 209 | 4.0 | 5.0 | 0.00 | 0.00 | 0.00 | 92 | 1014.3 |
| 20260508081007 | 45 | 222 | 3.0 | 5.0 | 0.00 | 0.00 | 0.00 | 91 | 1014.4 |
| 20260508080506 | 45 | 221 | 5.0 | 6.0 | 0.00 | 0.00 | 0.00 | 92 | 1014.5 |
| 20260508080003 | 45 | 230 | 3.0 | 3.0 | 0.00 | 0.00 | 0.00 | 92 | 1014.6 |
| 20260508075500 | 45 | 232 | 3.0 | 3.0 | 0.00 | 0.00 | 0.00 | 93 | 1014.5 |
| 20260508074957 | 45 | 224 | 2.0 | 3.0 | 0.00 | 0.00 | 0.00 | 93 | 1014.8 |
| 20260508074455 | 44 | 221 | 3.0 | 5.0 | 0.00 | 0.00 | 0.00 | 93 | 1014.5 |
| 20260508073951 | 44 | 223 | 3.0 | 3.0 | 0.00 | 0.00 | 0.00 | 93 | 1014.4 |
| 20260508073449 | 44 | 230 | 2.0 | 2.0 | 0.00 | 0.00 | 0.00 | 93 | 1014.5 |
| 20260508072946 | 44 | 222 | 1.0 | 2.0 | 0.00 | 0.00 | 0.00 | 93 | 1014.9 |
| 20260508072442 | 44 | 215 | 1.0 | 2.0 | 0.00 | 0.00 | 0.00 | 93 | 1014.6 |
| 20260508071939 | 44 | 220 | 2.0 | 3.0 | 0.00 | 0.00 | 0.00 | 92 | 1014.6 |
| 20260508071437 | 44 | 229 | 2.0 | 3.0 | 0.00 | 0.00 | 0.00 | 92 | 1014.6 |
| 20260508070935 | 44 | 225 | 2.0 | 3.0 | 0.00 | 0.00 | 0.00 | 91 | 1014.6 |
| 20260508070432 | 44 | 216 | 1.0 | 2.0 | 0.00 | 0.00 | 0.00 | 91 | 1014.5 |
| 20260508065930 | 44 | 215 | 2.0 | 2.0 | 0.00 | 0.00 | 0.00 | 91 | 1014.8 |
| 20260508065428 | 44 | 217 | 2.0 | 2.0 | 0.00 | 0.00 | 0.00 | 91 | 1014.6 |
| 20260508064925 | 44 | 213 | 2.0 | 2.0 | 0.00 | 0.00 | 0.00 | 91 | 1014.9 |
| 20260508064423 | 44 | 213 | 2.0 | 2.0 | 0.00 | 0.00 | 0.00 | 91 | 1014.7 |
| 20260508063920 | 44 | 217 | 2.0 | 3.0 | 0.00 | 0.00 | 0.00 | 91 | 1014.8 |
| 20260508063418 | 44 | 210 | 3.0 | 5.0 | 0.00 | 0.00 | 0.00 | 91 | 1014.8 |
| 20260508062915 | 43 | 211 | 3.0 | 3.0 | 0.00 | 0.00 | 0.00 | 90 | 1014.9 |
| 20260508062413 | 43 | 213 | 3.0 | 3.0 | 0.00 | 0.00 | 0.00 | 90 | 1014.9 |
| 20260508061910 | 44 | 212 | 3.0 | 6.0 | 0.00 | 0.00 | 0.00 | 89 | 1014.9 |
| 20260508061407 | 44 | 214 | 3.0 | 5.0 | 0.00 | 0.00 | 0.00 | 89 | 1014.9 |
| 20260508060903 | 44 | 215 | 3.0 | 3.0 | 0.00 | 0.00 | 0.00 | 88 | 1014.9 |
| 20260508060401 | 45 | 205 | 4.0 | 6.0 | 0.00 | 0.00 | 0.00 | 88 | 1015.0 |
| 20260508055901 | 45 | 222 | 5.0 | 7.0 | 0.00 | 0.00 | 0.00 | 87 | 1015.1 |
| 20260508055359 | 45 | 231 | 5.0 | 7.0 | 0.00 | 0.00 | 0.00 | 86 | 1015.0 |
| 20260508054855 | 45 | 219 | 5.0 | 8.0 | 0.00 | 0.00 | 0.00 | 85 | 1015.0 |
| 20260508054353 | 46 | 215 | 5.0 | 8.0 | 0.00 | 0.00 | 0.00 | 84 | 1015.2 |
| 20260508053849 | 46 | 233 | 6.0 | 9.0 | 0.00 | 0.00 | 0.00 | 83 | 1015.1 |
| 20260508053347 | 46 | 214 | 6.0 | 8.0 | 0.00 | 0.00 | 0.00 | 85 | 1015.4 |
| 20260508052844 | 46 | 232 | 5.0 | 7.0 | 0.00 | 0.00 | 0.00 | 85 | 1015.4 |
| 20260508052342 | 46 | 214 | 6.0 | 8.0 | 0.00 | 0.00 | 0.00 | 84 | 1015.2 |
| 20260508051837 | 47 | 220 | 5.0 | 11.0 | 0.00 | 0.00 | 0.00 | 83 | 1015.2 |
| 20260508051333 | 47 | 247 | 5.0 | 9.0 | 0.00 | 0.00 | 0.00 | 83 | 1015.2 |
| 20260508050829 | 47 | 212 | 5.0 | 8.0 | 0.00 | 0.00 | 0.00 | 82 | 1015.4 |
| 20260508050327 | 48 | 240 | 5.0 | 8.0 | 0.00 | 0.00 | 0.00 | 81 | 1015.4 |
| 20260508045822 | 48 | 218 | 7.0 | 8.0 | 0.00 | 0.00 | 0.00 | 81 | 1015.2 |
| 20260508045320 | 48 | 226 | 7.0 | 9.0 | 0.00 | 0.00 | 0.00 | 80 | 1015.2 |
| 20260508044818 | 48 | 234 | 7.0 | 9.0 | 0.00 | 0.00 | 0.00 | 79 | 1015.4 |
| 20260508044314 | 48 | 205 | 10.0 | 10.0 | 0.00 | 0.00 | 0.00 | 78 | 1015.1 |
| 20260508043810 | 48 | 207 | 7.0 | 10.0 | 0.00 | 0.00 | 0.00 | 76 | 1015.0 |
| 20260508043308 | 48 | 204 | 9.0 | 10.0 | 0.00 | 0.00 | 0.00 | 75 | 1014.9 |
| 20260508042804 | 48 | 215 | 6.0 | 8.0 | 0.00 | 0.00 | 0.00 | 75 | 1015.1 |
| 20260508042306 | 47 | 232 | 6.0 | 8.0 | 0.00 | 0.00 | 0.00 | 78 | 1015.0 |
| 20260508041758 | 47 | 216 | 4.0 | 5.0 | 0.00 | 0.00 | 0.00 | 79 | 1015.1 |
| 20260508041255 | 47 | 207 | 4.0 | 5.0 | 0.00 | 0.00 | 0.00 | 80 | 1015.4 |
| 20260508040751 | 47 | 214 | 4.0 | 5.0 | 0.00 | 0.00 | 0.00 | 80 | 1015.2 |
| 20260508040248 | 47 | 211 | 3.0 | 5.0 | 0.00 | 0.00 | 0.00 | 81 | 1015.4 |
| 20260508035746 | 46 | 215 | 3.0 | 5.0 | 0.00 | 0.00 | 0.00 | 82 | 1015.4 |
| 20260508035243 | 46 | 211 | 2.0 | 3.0 | 0.00 | 0.00 | 0.00 | 83 | 1015.4 |
| 20260508034740 | 46 | 211 | 2.0 | 2.0 | 0.00 | 0.00 | 0.00 | 83 | 1015.4 |
| 20260508034237 | 46 | 213 | 2.0 | 2.0 | 0.00 | 0.00 | 0.00 | 83 | 1015.4 |
| 20260508033734 | 47 | 210 | 2.0 | 2.0 | 0.00 | 0.00 | 0.00 | 81 | 1015.2 |
| 20260508033232 | 47 | 215 | 3.0 | 3.0 | 0.00 | 0.00 | 0.00 | 81 | 1015.4 |
| 20260508032730 | 46 | 212 | 3.0 | 3.0 | 0.00 | 0.00 | 0.00 | 81 | 1015.5 |
| 20260508032227 | 47 | 215 | 3.0 | 3.0 | 0.00 | 0.00 | 0.00 | 81 | 1015.4 |
| 20260508031723 | 47 | 213 | 2.0 | 3.0 | 0.00 | 0.00 | 0.00 | 80 | 1015.5 |
| 20260508031219 | 47 | 212 | 3.0 | 3.0 | 0.00 | 0.00 | 0.00 | 80 | 1015.6 |
| 20260508030716 | 47 | 212 | 3.0 | 3.0 | 0.00 | 0.00 | 0.00 | 80 | 1015.6 |
| 20260508030214 | 47 | 209 | 3.0 | 3.0 | 0.00 | 0.00 | 0.00 | 80 | 1015.6 |
| 20260508025710 | 47 | 222 | 3.0 | 3.0 | 0.00 | 0.00 | 0.00 | 78 | 1015.9 |
| 20260508025207 | 47 | 216 | 3.0 | 5.0 | 0.00 | 0.00 | 0.00 | 77 | 1015.8 |
| 20260508024703 | 47 | 213 | 3.0 | 5.0 | 0.00 | 0.00 | 0.00 | 77 | 1015.7 |
| 20260508024200 | 48 | 208 | 4.0 | 5.0 | 0.00 | 0.00 | 0.00 | 77 | 1015.9 |
| 20260508023656 | 48 | 210 | 4.0 | 5.0 | 0.00 | 0.00 | 0.00 | 76 | 1015.9 |
| 20260508023154 | 48 | 212 | 3.0 | 3.0 | 0.00 | 0.00 | 0.00 | 77 | 1015.7 |
| 20260508022649 | 48 | 211 | 2.0 | 2.0 | 0.00 | 0.00 | 0.00 | 76 | 1015.8 |
| 20260508022147 | 48 | 211 | 2.0 | 2.0 | 0.00 | 0.00 | 0.00 | 75 | 1015.9 |
| 20260508021643 | 48 | 217 | 4.0 | 5.0 | 0.00 | 0.00 | 0.00 | 73 | 1015.8 |
| 20260508021138 | 48 | 211 | 3.0 | 3.0 | 0.00 | 0.00 | 0.00 | 74 | 1015.9 |
| 20260508020637 | 48 | 216 | 4.0 | 5.0 | 0.00 | 0.00 | 0.00 | 73 | 1015.9 |
| 20260508020134 | 49 | 211 | 4.0 | 6.0 | 0.00 | 0.00 | 0.00 | 72 | 1015.9 |
| 20260508015631 | 49 | 224 | 4.0 | 6.0 | 0.00 | 0.00 | 0.00 | 71 | 1016.0 |
| 20260508015128 | 49 | 231 | 4.0 | 6.0 | 0.00 | 0.00 | 0.00 | 70 | 1015.8 |
| 20260508014624 | 49 | 236 | 4.0 | 6.0 | 0.00 | 0.00 | 0.00 | 70 | 1016.0 |
| 20260508014121 | 49 | 236 | 5.0 | 8.0 | 0.00 | 0.00 | 0.00 | 69 | 1015.8 |
| 20260508013617 | 50 | 224 | 6.0 | 8.0 | 0.00 | 0.00 | 0.00 | 68 | 1015.8 |
| 20260508013114 | 50 | 236 | 5.0 | 9.0 | 0.00 | 0.00 | 0.00 | 67 | 1015.6 |
| 20260508012611 | 50 | 223 | 6.0 | 8.0 | 0.00 | 0.00 | 0.00 | 66 | 1015.6 |
| 20260508012108 | 50 | 241 | 10.0 | 11.0 | 0.00 | 0.00 | 0.00 | 63 | 1015.6 |
| 20260508011607 | 50 | 241 | 10.0 | 11.0 | 0.00 | 0.00 | 0.00 | 63 | 1015.7 |
| 20260508011104 | 50 | 205 | 10.0 | 13.0 | 0.00 | 0.00 | 0.00 | 63 | 1015.6 |
| 20260508010600 | 50 | 213 | 10.0 | 13.0 | 0.00 | 0.00 | 0.00 | 63 | 1015.6 |
| 20260508010058 | 51 | 240 | 13.0 | 15.0 | 0.00 | 0.00 | 0.00 | 61 | 1015.6 |
| 20260508005555 | 51 | 242 | 9.0 | 13.0 | 0.00 | 0.00 | 0.00 | 60 | 1015.6 |
| 20260508005051 | 51 | 232 | 12.0 | 14.0 | 0.00 | 0.00 | 0.00 | 60 | 1015.5 |
| 20260508004547 | 51 | 246 | 12.0 | 17.0 | 0.00 | 0.00 | 0.00 | 59 | 1015.2 |
| 20260508004044 | 52 | 226 | 11.0 | 16.0 | 0.00 | 0.00 | 0.00 | 57 | 1015.2 |
| 20260508003540 | 52 | 231 | 11.0 | 16.0 | 0.00 | 0.00 | 0.00 | 57 | 1015.2 |
| 20260508003038 | 53 | 224 | 11.0 | 21.0 | 0.00 | 0.00 | 0.00 | 55 | 1015.0 |
| 20260508002534 | 53 | 220 | 10.0 | 14.0 | 0.00 | 0.00 | 0.00 | 53 | 1015.1 |
| 20260508002032 | 53 | 231 | 7.0 | 15.0 | 0.00 | 0.00 | 0.00 | 53 | 1014.9 |
| 20260508001527 | 54 | 230 | 9.0 | 13.0 | 0.00 | 0.00 | 0.00 | 52 | 1014.9 |
| 20260508001024 | 54 | 242 | 11.0 | 15.0 | 0.00 | 0.00 | 0.00 | 49 | 1015.0 |
| 20260508000520 | 55 | 235 | 7.0 | 9.0 | 0.00 | 0.00 | 0.00 | 47 | 1014.9 |
| 20260508000017 | 55 | 231 | 8.0 | 10.0 | 0.00 | 0.00 | 0.00 | 46 | 1014.7 |
| 20260507235514 | 55 | 245 | 5.0 | 6.0 | 0.00 | 0.00 | 0.00 | 48 | 1014.8 |
| 20260507235011 | 55 | 234 | 7.0 | 14.0 | 0.00 | 0.00 | 0.00 | 45 | 1014.8 |
| 20260507234507 | 55 | 245 | 9.0 | 11.0 | 0.00 | 0.00 | 0.00 | 46 | 1014.7 |
| 20260507234004 | 55 | 246 | 5.0 | 9.0 | 0.00 | 0.00 | 0.00 | 46 | 1014.8 |
| 20260507233500 | 55 | 250 | 7.0 | 8.0 | 0.00 | 0.00 | 0.00 | 46 | 1014.8 |
| 20260507233000 | 55 | 243 | 6.0 | 9.0 | 0.00 | 0.00 | 0.00 | 47 | 1014.5 |
| 20260507232455 | 55 | 250 | 7.0 | 11.0 | 0.00 | 0.00 | 0.00 | 46 | 1014.7 |
| 20260507231953 | 55 | 246 | 9.0 | 11.0 | 0.00 | 0.00 | 0.00 | 46 | 1014.6 |
| 20260507231449 | 56 | 239 | 8.0 | 10.0 | 0.00 | 0.00 | 0.00 | 42 | 1014.7 |
| 20260507230946 | 56 | 256 | 10.0 | 13.0 | 0.00 | 0.00 | 0.00 | 42 | 1014.6 |
| 20260507230443 | 57 | 258 | 5.0 | 8.0 | 0.00 | 0.00 | 0.00 | 45 | 1014.7 |
| 20260507225938 | 58 | 248 | 5.0 | 6.0 | 0.00 | 0.00 | 0.00 | 40 | 1014.6 |
| 20260507225434 | 58 | 260 | 5.0 | 10.0 | 0.00 | 0.00 | 0.00 | 41 | 1014.5 |
| 20260507224931 | 57 | 262 | 5.0 | 7.0 | 0.00 | 0.00 | 0.00 | 42 | 1014.8 |
| 20260507224426 | 56 | 268 | 4.0 | 8.0 | 0.00 | 0.00 | 0.00 | 42 | 1014.7 |
| 20260507223923 | 56 | 243 | 5.0 | 9.0 | 0.00 | 0.00 | 0.00 | 42 | 1014.7 |
| 20260507223414 | 57 | 271 | 3.0 | 7.0 | 0.00 | 0.00 | 0.00 | 44 | 1014.8 |
| 20260507222911 | 55 | 252 | 5.0 | 8.0 | 0.00 | 0.00 | 0.00 | 45 | 1014.9 |
| 20260507222408 | 56 | 257 | 8.0 | 13.0 | 0.00 | 0.00 | 0.00 | 44 | 1014.9 |
| 20260507221905 | 58 | 243 | 3.0 | 6.0 | 0.00 | 0.00 | 0.00 | 43 | 1014.8 |
| 20260507221401 | 57 | 241 | 5.0 | 9.0 | 0.00 | 0.00 | 0.00 | 42 | 1014.8 |
| 20260507220857 | 56 | 252 | 6.0 | 10.0 | 0.00 | 0.00 | 0.00 | 43 | 1014.8 |
| 20260507220356 | 56 | 260 | 5.0 | 8.0 | 0.00 | 0.00 | 0.00 | 44 | 1014.9 |
| 20260507215852 | 58 | 245 | 7.0 | 10.0 | 0.00 | 0.00 | 0.00 | 46 | 1014.8 |
| 20260507215349 | 58 | 233 | 4.0 | 10.0 | 0.00 | 0.00 | 0.00 | 45 | 1014.8 |
| 20260507214846 | 56 | 270 | 10.0 | 14.0 | 0.00 | 0.00 | 0.00 | 42 | 1014.9 |
| 20260507214343 | 58 | 249 | 8.0 | 13.0 | 0.00 | 0.00 | 0.00 | 40 | 1014.9 |
| 20260507213838 | 58 | 267 | 8.0 | 8.0 | 0.00 | 0.00 | 0.00 | 39 | 1014.7 |
| 20260507213335 | 58 | 306 | 4.0 | 7.0 | 0.00 | 0.00 | 0.00 | 42 | 1014.6 |
| 20260507212832 | 58 | 291 | 7.0 | 10.0 | 0.00 | 0.00 | 0.00 | 40 | 1014.8 |
| 20260507212327 | 57 | 250 | 4.0 | 10.0 | 0.00 | 0.00 | 0.00 | 42 | 1014.7 |
| 20260507211824 | 57 | 236 | 7.0 | 11.0 | 0.00 | 0.00 | 0.00 | 41 | 1014.7 |
| 20260507211321 | 55 | 261 | 6.0 | 9.0 | 0.00 | 0.00 | 0.00 | 44 | 1014.8 |
| 20260507210818 | 57 | 330 | 5.0 | 10.0 | 0.00 | 0.00 | 0.00 | 41 | 1014.8 |
| 20260507210315 | 57 | 240 | 5.0 | 10.0 | 0.00 | 0.00 | 0.00 | 43 | 1014.8 |
| 20260507205811 | 56 | 257 | 4.0 | 10.0 | 0.00 | 0.00 | 0.00 | 43 | 1014.9 |
| 20260507205309 | 58 | 337 | 4.0 | 14.0 | 0.00 | 0.00 | 0.00 | 42 | 1015.0 |
| 20260507204804 | 58 | 262 | 9.0 | 17.0 | 0.00 | 0.00 | 0.00 | 44 | 1014.8 |
| 20260507204302 | 58 | 263 | 9.0 | 13.0 | 0.00 | 0.00 | 0.00 | 43 | 1014.9 |
| 20260507203800 | 56 | 271 | 4.0 | 11.0 | 0.00 | 0.00 | 0.00 | 46 | 1015.1 |
| 20260507203258 | 56 | 273 | 5.0 | 7.0 | 0.00 | 0.00 | 0.00 | 45 | 1015.1 |
| 20260507202753 | 56 | 276 | 5.0 | 7.0 | 0.00 | 0.00 | 0.00 | 46 | 1015.1 |
| 20260507202249 | 55 | 245 | 4.0 | 8.0 | 0.00 | 0.00 | 0.00 | 47 | 1015.1 |
| 20260507201744 | 56 | 231 | 4.0 | 9.0 | 0.00 | 0.00 | 0.00 | 45 | 1015.4 |
| 20260507201241 | 56 | 267 | 8.0 | 10.0 | 0.00 | 0.00 | 0.00 | 44 | 1015.2 |
| 20260507200737 | 56 | 27 | 7.0 | 14.0 | 0.00 | 0.00 | 0.00 | 43 | 1015.1 |
| 20260507200233 | 57 | 253 | 9.0 | 14.0 | 0.00 | 0.00 | 0.00 | 44 | 1015.1 |
| 20260507195730 | 56 | 265 | 3.0 | 6.0 | 0.00 | 0.00 | 0.00 | 47 | 1015.4 |
| 20260507195228 | 55 | 287 | 5.0 | 10.0 | 0.00 | 0.00 | 0.00 | 44 | 1015.4 |
| 20260507194724 | 56 | 334 | 5.0 | 11.0 | 0.00 | 0.00 | 0.00 | 46 | 1015.2 |
| 20260507194221 | 56 | 257 | 6.0 | 13.0 | 0.00 | 0.00 | 0.00 | 45 | 1015.5 |
| 20260507193718 | 57 | 242 | 12.0 | 16.0 | 0.00 | 0.00 | 0.00 | 44 | 1015.4 |
| 20260507193214 | 56 | 243 | 10.0 | 13.0 | 0.00 | 0.00 | 0.00 | 47 | 1015.6 |
| 20260507192710 | 57 | 256 | 11.0 | 16.0 | 0.00 | 0.00 | 0.00 | 43 | 1015.5 |
| 20260507192207 | 57 | 219 | 5.0 | 14.0 | 0.00 | 0.00 | 0.00 | 45 | 1015.2 |
| 20260507191703 | 56 | 284 | 3.0 | 6.0 | 0.00 | 0.00 | 0.00 | 44 | 1015.4 |
| 20260507191201 | 56 | 259 | 5.0 | 9.0 | 0.00 | 0.00 | 0.00 | 43 | 1015.4 |
| 20260507190657 | 55 | 249 | 5.0 | 10.0 | 0.00 | 0.00 | 0.00 | 44 | 1015.5 |
| 20260507190155 | 55 | 266 | 6.0 | 9.0 | 0.00 | 0.00 | 0.00 | 50 | 1015.7 |
| 20260507185653 | 57 | 249 | 8.0 | 11.0 | 0.00 | 0.00 | 0.00 | 47 | 1015.6 |
| 20260507185150 | 57 | 278 | 9.0 | 11.0 | 0.00 | 0.00 | 0.00 | 45 | 1015.4 |
| 20260507184648 | 57 | 245 | 2.0 | 10.0 | 0.00 | 0.00 | 0.00 | 49 | 1015.4 |
| 20260507184146 | 56 | 344 | 4.0 | 13.0 | 0.00 | 0.00 | 0.00 | 48 | 1015.5 |
| 20260507183642 | 56 | 323 | 3.0 | 11.0 | 0.00 | 0.00 | 0.00 | 46 | 1015.6 |
| 20260507183139 | 55 | 258 | 7.0 | 16.0 | 0.00 | 0.00 | 0.00 | 45 | 1015.7 |
| 20260507182636 | 56 | 257 | 14.0 | 18.0 | 0.00 | 0.00 | 0.00 | 48 | 1015.8 |
| 20260507182131 | 56 | 326 | 5.0 | 8.0 | 0.00 | 0.00 | 0.00 | 45 | 1015.8 |
| 20260507181628 | 56 | 285 | 8.0 | 11.0 | 0.00 | 0.00 | 0.00 | 45 | 1015.7 |
| 20260507181124 | 56 | 257 | 7.0 | 11.0 | 0.00 | 0.00 | 0.00 | 48 | 1015.7 |
| 20260507180621 | 56 | 302 | 11.0 | 14.0 | 0.00 | 0.00 | 0.00 | 44 | 1015.6 |
| 20260507180118 | 55 | 264 | 8.0 | 14.0 | 0.00 | 0.00 | 0.00 | 47 | 1015.8 |
| 20260507175614 | 55 | 256 | 9.0 | 10.0 | 0.00 | 0.00 | 0.00 | 50 | 1015.7 |